Theta_e
349 355 361 362 360 360 362 363 363 362 361 361 362 362 361 361 360 360 359 358 356 354 352 350 349 349 349 349 351 353 353 352 351 349 349 350 347 343 343 354 350 350 351
351 354 360 362 361 359 360 363 363 363 363 363 362 361 360 359 358 358 357 356 355 352 350 349 349 349 350 352 351 350 350 350 346 343 342 342 344 343 347 346 348 349 352
352 353 354 361 361 360 360 361 361 361 361 361 361 359 358 358 357 357 356 354 353 350 348 348 349 350 351 351 349 349 349 349 343 341 343 341 339 343 348 347 349 352 349
353 353 350 361 362 360 360 360 359 360 360 359 359 358 358 358 357 356 354 353 351 349 347 347 348 349 349 349 347 346 347 348 343 345 343 342 341 349 350 349 352 349 346
353 352 354 361 361 360 360 359 359 359 358 358 357 357 357 357 357 355 353 351 349 347 346 346 346 346 346 345 345 344 344 346 346 345 342 342 343 352 352 352 350 347 342
351 351 358 360 361 361 359 359 359 358 357 357 356 356 357 357 356 354 352 349 347 346 345 345 343 341 342 343 343 342 343 345 347 342 346 343 344 352 352 352 346 345 341
349 350 358 361 362 361 358 358 358 358 358 358 356 356 356 357 356 354 351 348 346 346 345 344 343 341 340 342 342 342 343 345 343 341 346 346 345 353 350 350 348 344 341
347 350 356 360 361 361 360 359 359 358 358 357 357 357 356 357 356 354 351 347 346 346 346 345 344 343 342 343 343 343 345 346 343 346 346 344 343 348 350 348 345 342 339
349 348 355 355 359 360 360 359 359 358 358 358 357 357 356 356 356 354 352 349 347 347 347 347 346 345 345 345 344 344 346 347 345 347 344 343 341 343 348 346 343 341 337
348 347 351 354 354 355 354 358 358 358 357 356 355 355 355 354 355 354 354 352 349 348 348 348 347 346 347 347 346 346 345 347 343 342 342 344 338 342 347 345 343 340 338
347 347 349 350 352 353 352 354 357 356 356 355 354 355 354 348 349 350 353 353 352 351 350 349 349 349 349 350 348 347 344 344 343 342 342 339 336 344 345 345 343 341 338
345 345 347 348 349 351 349 353 354 349 350 350 349 351 349 347 348 347 350 352 351 351 351 352 352 352 351 347 351 346 342 344 343 342 342 336 338 343 343 343 344 342 339
344 345 345 348 352 350 349 350 350 348 348 350 352 352 351 347 348 347 345 346 347 350 346 349 350 350 349 350 348 346 344 344 342 341 338 331 332 336 340 340 343 344 341
343 345 346 347 352 354 350 348 348 348 348 348 350 354 352 349 348 347 343 343 344 345 347 349 347 349 350 351 349 346 345 343 342 340 338 329 327 331 333 334 334 339 342
342 345 346 348 353 354 355 349 348 348 347 348 349 352 351 348 347 347 345 344 343 343 345 347 347 350 350 349 347 345 344 342 341 339 338 330 326 327 329 331 332 333 337
346 345 347 348 353 353 353 353 348 349 348 348 347 349 353 350 349 347 346 346 345 346 349 351 353 353 354 347 343 345 342 341 340 337 334 331 326 326 327 329 330 332 334
347 350 348 348 350 354 352 352 351 347 347 346 348 351 352 353 352 351 347 345 346 351 347 346 342 339 337 337 338 339 339 339 335 334 331 327 326 327 324 326 329 332 334
349 350 352 347 347 352 352 350 349 348 347 346 347 348 351 352 353 353 349 347 350 348 340 338 336 333 332 335 334 337 334 336 336 331 328 324 323 322 324 324 326 328 331
351 352 352 352 346 348 354 351 350 351 348 347 347 347 350 350 350 352 350 350 347 342 337 334 332 333 333 333 332 333 334 333 332 328 325 324 323 321 322 324 322 321 322
350 354 355 353 353 351 350 352 350 348 348 348 347 347 350 349 349 351 352 346 347 339 334 335 332 333 330 334 333 334 331 331 329 325 323 322 321 322 322 323 323 321 318
348 352 355 355 358 354 348 347 346 346 347 347 348 350 351 351 351 354 350 345 347 341 335 331 332 332 331 333 328 327 324 327 324 322 322 320 320 320 320 320 320 320 320
348 350 355 356 359 358 352 352 345 345 349 349 350 344 348 345 353 353 349 344 343 338 335 331 330 327 329 326 321 321 317 321 321 321 320 319 319 319 319 320 320 320 320
344 347 350 359 360 360 358 354 347 343 353 347 349 349 352 352 353 346 347 344 340 336 332 328 328 327 324 321 319 318 314 312 316 319 319 318 318 317 318 319 319 319 320
337 340 347 349 358 357 359 356 355 343 346 347 349 351 351 351 347 347 345 344 339 339 334 328 332 329 327 318 318 320 322 320 312 309 315 317 318 318 319 318 319 319 320
340 340 343 343 350 354 355 356 350 351 347 351 349 351 353 353 349 345 341 344 338 342 332 333 331 325 322 320 320 320 320 317 317 311 308 311 316 317 318 318 318 319 319
349 345 343 345 346 351 352 352 352 351 350 347 349 348 348 346 345 344 340 338 337 332 330 325 322 321 323 325 323 321 317 314 312 312 311 313 312 315 317 318 318 319 320
Wind_Speed
13 21 19 17 14 14 15 15 15 16 16 16 15 15 14 13 12 12 11 11 10 10 10 10 10 9 9 10 9 8 7 5 4 3 2 2 3 4 4 4 5 10 8
17 21 19 17 17 15 15 15 16 15 15 15 15 15 14 13 13 12 11 10 11 10 10 10 9 8 8 9 9 7 6 4 5 3 1 8 7 4 6 5 4 6 7
19 20 20 16 16 15 14 15 15 15 15 14 14 14 14 14 13 12 11 11 10 10 9 9 9 8 8 8 7 6 5 4 3 2 7 7 2 4 5 6 3 5 6
19 19 19 17 16 16 15 14 15 15 14 14 14 14 13 13 12 11 11 10 10 10 9 9 8 8 7 7 6 4 4 3 1 7 9 3 3 7 6 7 6 6 6
19 19 18 17 16 16 16 15 14 14 15 15 15 13 13 12 11 11 10 9 9 9 9 8 6 6 5 5 4 3 2 1 5 11 6 5 7 11 8 8 9 8 4
18 19 21 18 18 17 16 15 15 15 14 14 14 13 12 12 11 10 9 9 9 8 8 6 4 4 3 2 2 2 2 3 9 9 2 3 7 9 7 9 1 4 4
18 17 19 18 18 17 17 16 15 14 13 12 13 12 12 11 10 9 8 8 8 7 6 4 3 2 1 0 0 1 3 5 11 8 3 4 5 5 6 7 7 7 6
16 16 18 16 16 16 16 15 14 13 13 12 12 11 11 10 9 8 7 7 7 6 5 4 3 2 2 2 2 3 4 7 9 5 8 6 11 5 7 8 8 9 8
15 15 16 18 15 13 13 13 12 12 12 11 10 9 9 9 8 8 7 6 6 6 5 4 4 4 4 4 4 4 5 7 12 3 8 6 9 5 9 9 9 9 9
14 15 15 16 17 15 15 14 12 11 11 10 10 9 9 8 8 8 6 9 8 8 7 7 6 6 6 6 6 6 6 10 13 7 6 3 5 6 10 10 11 11 9
12 15 14 16 16 15 15 14 12 11 11 10 10 10 9 9 11 11 9 6 10 9 9 8 8 8 8 11 10 8 8 9 9 6 6 11 1 7 10 11 12 12 12
16 15 14 14 14 14 10 11 12 12 11 11 11 11 10 10 8 7 3 9 9 11 10 10 11 11 11 10 10 11 8 8 7 6 5 8 3 9 12 13 14 15 14
16 13 15 14 13 13 11 8 7 8 8 8 12 10 9 8 8 8 7 8 9 15 10 13 12 11 13 8 6 6 7 7 6 5 1 6 4 10 13 16 16 16 17
16 16 15 15 13 13 8 9 9 8 8 8 10 11 8 7 8 7 6 7 6 6 8 7 7 8 8 8 11 9 8 7 6 5 4 7 4 9 13 15 16 17 16
14 15 15 14 14 12 13 9 9 9 9 9 9 10 10 9 8 8 7 8 7 7 6 7 7 6 7 9 9 10 10 8 9 6 6 9 6 10 13 16 17 18 16
13 14 15 15 15 15 13 14 9 9 10 9 9 10 12 10 8 9 9 9 9 7 4 4 0 3 5 9 8 9 9 8 8 8 8 7 9 8 11 14 15 17 17
14 14 15 16 16 16 16 13 11 10 10 10 10 12 13 13 12 11 10 10 9 4 3 3 6 7 5 6 9 9 8 9 7 8 8 8 6 12 5 7 11 11 13
16 18 17 14 17 18 16 13 11 11 11 10 10 10 15 15 13 11 10 9 2 3 3 5 5 3 4 6 10 7 7 9 10 8 9 7 7 7 5 1 5 5 5
17 17 19 19 20 18 16 13 12 12 11 11 11 11 14 15 15 13 10 8 7 4 7 2 3 2 7 9 8 8 9 7 10 8 8 9 8 7 6 10 4 6 8
17 17 17 15 16 14 11 10 11 12 12 12 12 13 16 13 15 13 10 8 11 8 7 4 3 5 4 9 9 6 7 5 8 8 9 8 6 6 6 5 5 8 6
17 17 15 15 13 11 11 12 10 10 11 12 12 14 13 5 9 11 12 11 11 8 6 5 4 7 5 5 4 6 8 8 9 9 7 7 7 7 6 6 6 5 5
15 15 15 15 15 15 13 10 3 10 11 10 2 5 7 6 17 12 8 10 12 7 6 4 5 5 6 6 3 4 4 8 9 8 6 7 8 7 8 9 8 7 8
9 13 14 15 14 13 14 8 5 1 9 6 7 7 4 2 4 3 7 9 11 9 11 10 9 9 6 4 7 5 5 6 3 6 8 8 8 7 8 8 9 9 9
6 3 6 9 10 11 12 11 8 4 8 7 7 7 5 2 4 8 10 8 11 9 11 10 9 10 8 6 5 9 9 8 6 7 6 8 8 9 10 9 9 10 11
11 8 5 0 6 8 8 9 8 8 5 2 3 6 7 9 10 8 7 10 11 9 8 7 9 10 6 3 8 7 6 6 8 8 11 7 9 9 10 10 10 9 11
14 12 9 8 3 6 7 8 8 7 8 8 9 6 7 8 7 11 12 11 10 10 8 6 8 7 7 9 7 6 7 6 7 8 10 11 11 10 10 8 9 5 5
Wind_Direction
158 142 157 162 164 156 152 144 141 144 141 143 140 140 140 145 147 151 150 147 144 141 137 133 129 122 119 117 111 100 95 96 92 92 114 185 207 213 213 195 239 221 93
159 147 156 162 159 158 152 147 143 142 143 142 143 144 147 149 151 152 155 156 152 146 144 139 129 128 125 118 113 111 102 89 86 64 271 216 193 208 218 216 254 68 99
151 152 162 161 159 157 154 152 147 145 142 144 147 150 154 153 158 158 161 161 155 150 147 138 137 138 131 124 116 108 97 92 63 307 262 273 354 128 203 198 172 107 116
148 153 163 161 160 160 160 157 149 146 147 151 154 158 160 157 161 162 162 162 156 156 151 147 148 139 127 123 115 108 92 89 337 276 244 327 321 86 167 179 167 155 152
155 158 148 163 163 164 165 162 155 155 157 161 163 164 164 162 165 162 165 163 161 164 156 159 147 130 128 129 122 109 78 35 271 262 309 4 317 109 157 173 176 180 185
164 161 138 165 167 168 168 169 163 164 165 167 166 166 167 168 169 165 166 171 167 175 170 160 153 137 123 117 111 81 30 315 283 253 201 122 278 113 170 187 177 140 168
164 162 157 168 170 169 171 173 171 169 170 171 170 172 173 175 174 174 175 183 182 185 181 169 172 176 139 167 319 358 342 303 284 295 267 251 31 146 189 189 187 187 195
163 164 158 169 172 173 175 176 176 173 173 174 176 175 179 181 180 184 187 195 192 202 200 200 205 228 245 265 284 312 312 294 263 260 272 275 103 173 211 200 198 201 206
168 176 162 174 178 179 179 178 179 177 177 178 180 176 184 191 192 195 199 203 211 214 223 227 231 239 247 258 268 287 291 282 283 263 275 275 105 193 218 214 214 217 219
176 184 173 184 182 190 184 184 187 183 183 185 186 188 191 201 209 212 213 211 221 222 224 229 234 241 247 250 252 257 263 262 259 288 274 7 58 229 220 222 226 229 236
183 189 190 187 186 199 194 175 189 196 197 197 196 203 194 221 196 204 212 149 205 228 232 234 237 239 242 236 227 235 252 252 275 277 291 85 136 230 229 232 236 239 243
188 193 195 197 200 198 205 186 199 199 207 207 207 202 216 217 228 245 182 186 223 232 236 234 236 236 233 252 193 198 236 254 266 283 293 96 238 243 246 250 246 241 242
190 192 198 193 199 212 204 198 200 207 205 207 217 216 216 222 214 213 230 207 220 209 228 201 210 223 234 253 254 251 265 274 273 278 92 120 263 266 265 268 264 253 242
189 196 195 192 198 214 215 208 210 211 206 215 208 209 228 217 225 238 228 233 218 227 223 234 246 243 269 262 274 272 261 264 269 284 278 143 243 265 270 272 274 269 254
195 192 200 199 198 204 216 220 220 218 209 221 218 207 225 224 229 229 234 240 240 226 228 245 253 268 273 255 262 253 260 271 284 281 289 156 230 269 274 273 270 267 259
209 200 201 201 198 207 211 221 217 225 228 223 226 220 212 233 227 233 227 230 231 222 229 252 287 295 308 298 277 264 276 272 267 290 289 290 186 248 268 267 267 264 263
203 214 206 207 200 208 210 213 219 229 223 231 226 225 223 217 224 236 231 232 221 191 239 107 44 36 355 330 288 283 265 277 275 263 275 287 281 209 217 268 272 281 273
211 199 209 209 206 206 217 212 220 218 230 233 232 232 220 225 225 215 233 227 126 93 74 60 62 40 295 272 262 253 271 263 268 276 269 283 291 293 161 86 293 276 309
213 215 204 205 215 208 210 222 223 232 226 236 237 235 228 224 220 215 222 186 142 175 134 210 94 236 257 259 260 275 262 267 270 273 275 271 267 269 291 110 97 70 51
221 216 220 213 218 218 216 219 227 221 230 228 228 231 230 223 219 212 211 165 187 170 144 192 201 241 214 258 251 246 269 274 263 257 256 251 254 252 250 276 219 152 124
240 222 218 220 213 212 211 222 227 261 231 232 231 234 252 267 249 201 201 180 182 174 150 174 225 242 269 235 273 248 241 232 256 253 230 250 239 233 265 252 265 276 204
235 244 222 223 214 209 215 223 129 282 278 265 310 268 217 233 229 243 208 179 171 157 145 140 201 218 199 168 227 266 265 206 221 227 247 246 248 265 249 238 266 268 279
228 234 232 226 225 224 237 214 239 175 221 270 262 259 307 33 271 168 235 205 158 173 167 181 197 214 223 181 211 243 270 235 315 215 224 255 265 255 252 255 251 259 260
346 268 252 255 233 228 227 244 236 233 254 296 321 9 352 229 238 173 207 219 173 172 182 192 191 227 208 185 189 232 262 297 289 283 199 224 238 246 252 264 263 248 253
48 27 100 33 236 228 215 226 235 242 251 293 248 216 196 165 168 174 173 188 190 188 224 195 187 192 180 204 225 234 231 252 240 270 280 275 213 226 240 246 257 259 268
35 56 59 77 176 179 188 190 201 208 218 219 223 232 206 180 188 177 182 184 197 196 210 157 170 167 199 217 244 249 248 250 249 241 257 259 260 263 254 259 280 265 272